STARLINK-3923, 52489

Orbit data source: Space-Track

STARLINK-3923, 52489 is a payload satellite owned by SpaceX/Seattle (US) in LEO that was launched on Fri, 06 May 2022 UTC via an FALCON 9 launch vehicle from the Air Force Eastern Test Range (AFETR). Payload-class satellites include a variety of spacecraft equipped with specific instruments for various scientific and technological missions. These include communications satellites like Starlink; space stations such as the ISS; scientific satellites like the Hubble; Earth observation satellites from companies like Planet Labs, Umbra, and HawkEye 360; GPS; miniature CubeSats for education and research; and military/defense satellites.

Loading next visibility...
Identifier
52489, 2022-049AQ
Orbit
LEO
Country
Flag of USUS
Related business
Manufacturer
SpaceX/Seattle
Mission
Operational Commercial Communications
Bus & Motor
STARLINK, Unknown motor
Mass
297 kg wet, ~220 kg dry
Launch date (UTC)
2022-05-06 (4 years ago)
Launch vehicle
FALCON 9
Launch site
Air Force Eastern Test Range (AFETR)
Object type
Payload
Rocket body
Debris
Shape & HBR
Box + 1 Pan, 10.1 m
Radar Cross Section
13.562 m², Large (>1 m²)

Expand to show TLE details & history
Last TLE update: 9 hours ago

TLE from 9 hours ago
0 STARLINK-3923
1 52489U 22049AQ  25346.97884183 -.00000209  00000-0  49326-5 0  9994
2 52489  53.2188  88.3838 0001319  90.3674 269.7470 15.08831104199160
Epoch: 2025-12-12T23:29Z
TLE epoch observation values (Epoch: 2025-12-12T23:29:31.934Z)
Latitude
0.00005°
Longitude
14.08808°
Altitude
540.672 km
Speed
7.593 km/s
True Right ascension
05h 53m 32s
True Declination
0° 00' 00"
Sunlit
Object was in full shadow at epoch
Visualization orbit readout
Latitude
Unknown
Longitude
Unknown
Altitude
Unknown
Speed
Unknown
Apparent Right ascension
Unknown
Apparent Declination
Unknown
Sunlit
N/A
Visualization observer readout
Local Sidereal Time
07:26:13
Azimuth
Unknown
Elevation
Unknown
Doppler factor
Unknown
Orbital elements
Apogee altitude
540.928 km
Perigee altitude
539.103 km
Semi-major axis
6,918.152 km
Eccentricity
0.00013
Inclination
53.2188°
RAAN
88.3838°
Arg. of periapsis
90.3674°
True anomaly
269.73189°
Mean anomaly
269.747°
Eccentric anomaly
269.73944°
Mean motion
3.77188 °/min
Orbital period
95.44 mins
BSTAR
0.0000049326
Loading maneuver chart data...
Computing Atmospheric mass density...
Loading historical data...
Loading historical data...
Loading historical data...
Loading historical data...
Loading historical data...
Loading historical data...
Loading historical data...

Documentation

Showing up to 5 results
|